• In Hungary
  • List of Countries
  • For 7 days
  • Water Temperature
  • Satellite Maps
  • Weather Map
  • News
  • Weather Widgets
  • user-avatar
    Login

    Hourly Weather Gurik

    Today, 22 September, Saturday

    Time Temperature Precipitation Wind Pressure Humidity
    00:00 +16°C° 0 mm 1 mps 700 mmHg 73%
    01:00 +16°C° 0 mm 1 mps 700 mmHg 72%
    02:00 +16°C° 0 mm 1 mps 700 mmHg 71%
    03:00 +16°C° 0 mm 1 mps 700 mmHg 70%
    04:00 +16°C° 0 mm 1 mps 700 mmHg 69%
    05:00 +16°C° 0 mm 1 mps 700 mmHg 68%
    06:00 +16°C° 0 mm 1 mps 700 mmHg 67%
    07:00 +19°C° 0 mm 1 mps 700 mmHg 60%
    08:00 +20°C° 0 mm 2 mps 701 mmHg 53%
    09:00 +24°C° 0 mm 2 mps 701 mmHg 47%
    10:00 +24°C° 0 mm 2 mps 701 mmHg 46%
    11:00 +25°C° 0 mm 3 mps 701 mmHg 44%
    12:00 +26°C° 0 mm 3 mps 701 mmHg 43%
    13:00 +25°C° 0.1 mm 3 mps 701 mmHg 45%
    14:00 +25°C° 0.1 mm 3 mps 701 mmHg 48%
    15:00 +24°C° 0.1 mm 3 mps 700 mmHg 50%
    16:00 +22°C° 0.2 mm 3 mps 700 mmHg 57%
    17:00 +20°C° 0.2 mm 2 mps 700 mmHg 65%
    18:00 +19°C° 0.2 mm 1 mps 699 mmHg 73%
    19:00 +19°C° 0.1 mm 1 mps 699 mmHg 73%
    20:00 +19°C° 0.1 mm 1 mps 699 mmHg 73%
    21:00 +18°C° 0.1 mm 1 mps 700 mmHg 74%
    22:00 +18°C° 0 mm 1 mps 699 mmHg 75%
    23:00 +18°C° 0 mm 1 mps 699 mmHg 75%

    Tomorrow, 23 September, Sunday

    Time Temperature Precipitation Wind Pressure Humidity
    00:00 +18°C° 0 mm 1 mps 699 mmHg 76%
    01:00 +16°C° 0 mm 1 mps 699 mmHg 76%
    02:00 +16°C° 0 mm 1 mps 699 mmHg 76%
    03:00 +16°C° 0 mm 1 mps 699 mmHg 76%
    04:00 +16°C° 0 mm 1 mps 699 mmHg 76%
    05:00 +16°C° 0 mm 1 mps 699 mmHg 76%
    06:00 +16°C° 0 mm 1 mps 699 mmHg 76%
    07:00 +18°C° 0 mm 2 mps 699 mmHg 70%
    08:00 +20°C° 0 mm 2 mps 699 mmHg 65%
    09:00 +23°C° 0 mm 2 mps 699 mmHg 60%
    10:00 +24°C° 0.1 mm 3 mps 699 mmHg 59%
    11:00 +24°C° 0.1 mm 3 mps 699 mmHg 58%
    12:00 +25°C° 0.1 mm 4 mps 699 mmHg 57%
    13:00 +24°C° 0.6 mm 3 mps 699 mmHg 60%
    14:00 +24°C° 0.6 mm 3 mps 698 mmHg 63%
    15:00 +22°C° 0.6 mm 3 mps 698 mmHg 66%
    16:00 +21°C° 0.6 mm 2 mps 698 mmHg 73%
    17:00 +19°C° 0.6 mm 2 mps 697 mmHg 80%
    18:00 +19°C° 0.6 mm 1 mps 697 mmHg 87%
    19:00 +19°C° 0.2 mm 1 mps 697 mmHg 86%
    20:00 +18°C° 0.2 mm 1 mps 698 mmHg 84%
    21:00 +18°C° 0.2 mm 1 mps 698 mmHg 83%
    22:00 +18°C° 0.1 mm 1 mps 698 mmHg 80%
    23:00 +18°C° 0.1 mm 1 mps 698 mmHg 77%

    Day after tomorrow, 24 September, Monday

    Time Temperature Precipitation Wind Pressure Humidity
    00:00 +18°C° 0.1 mm 1 mps 698 mmHg 74%
    01:00 +18°C° 0 mm 1 mps 697 mmHg 72%
    02:00 +18°C° 0 mm 1 mps 697 mmHg 69%
    03:00 +18°C° 0 mm 1 mps 697 mmHg 67%
    04:00 +17°C° 0 mm 2 mps 698 mmHg 68%
    05:00 +16°C° 0 mm 2 mps 698 mmHg 69%
    06:00 +16°C° 0 mm 2 mps 698 mmHg 70%
    07:00 +18°C° 0 mm 2 mps 698 mmHg 64%
    08:00 +20°C° 0 mm 2 mps 699 mmHg 59%
    09:00 +23°C° 0 mm 2 mps 699 mmHg 53%
    10:00 +24°C° 0 mm 2 mps 699 mmHg 51%
    11:00 +24°C° 0 mm 3 mps 699 mmHg 50%
    12:00 +25°C° 0 mm 3 mps 699 mmHg 49%
    13:00 +25°C° 0.2 mm 3 mps 699 mmHg 51%
    14:00 +24°C° 0.2 mm 3 mps 699 mmHg 54%
    15:00 +24°C° 0.2 mm 3 mps 699 mmHg 56%
    16:00 +21°C° 0 mm 2 mps 699 mmHg 64%
    17:00 +21°C° 0 mm 1 mps 699 mmHg 71%
    18:00 +19°C° 0 mm 1 mps 699 mmHg 78%
    19:00 +19°C° 0 mm 1 mps 699 mmHg 77%
    20:00 +18°C° 0 mm 1 mps 699 mmHg 76%
    21:00 +18°C° 0 mm 1 mps 699 mmHg 74%
    22:00 +18°C° 0 mm 1 mps 699 mmHg 72%
    23:00 +17°C° 0 mm 2 mps 699 mmHg 70%

    25 September, Tuesday

    Time Temperature Precipitation Wind Pressure Humidity
    00:00 +17°C° 0 mm 2 mps 698 mmHg 68%
    01:00 +17°C° 0 mm 2 mps 698 mmHg 66%
    02:00 +16°C° 0 mm 2 mps 698 mmHg 65%
    03:00 +16°C° 0 mm 2 mps 698 mmHg 64%
    04:00 +16°C° 0 mm 2 mps 697 mmHg 64%
    05:00 +16°C° 0 mm 2 mps 697 mmHg 63%
    06:00 +16°C° 0 mm 2 mps 697 mmHg 63%
    07:00 +19°C° 0 mm 2 mps 697 mmHg 56%
    08:00 +21°C° 0 mm 2 mps 698 mmHg 50%
    09:00 +25°C° 0 mm 2 mps 698 mmHg 44%
    10:00 +26°C° 0 mm 3 mps 698 mmHg 43%
    11:00 +27°C° 0 mm 3 mps 697 mmHg 42%
    12:00 +27°C° 0 mm 4 mps 697 mmHg 41%
    13:00 +27°C° 0 mm 3 mps 697 mmHg 45%
    14:00 +27°C° 0 mm 3 mps 697 mmHg 48%
    15:00 +26°C° 0 mm 3 mps 696 mmHg 51%
    16:00 +24°C° 0 mm 2 mps 696 mmHg 62%
    17:00 +22°C° 0 mm 1 mps 696 mmHg 72%
    18:00 +20°C° 0 mm 1 mps 696 mmHg 82%
    19:00 +20°C° 0 mm 1 mps 696 mmHg 81%
    20:00 +19°C° 0 mm 1 mps 697 mmHg 81%
    21:00 +19°C° 0 mm 1 mps 697 mmHg 80%
    22:00 +19°C° 0 mm 1 mps 697 mmHg 79%
    23:00 +19°C° 0 mm 1 mps 697 mmHg 78%

    26 September, Wednesday

    Time Temperature Precipitation Wind Pressure Humidity
    00:00 +19°C° 0 mm 1 mps 697 mmHg 78%
    01:00 +18°C° 0 mm 1 mps 697 mmHg 78%
    02:00 +18°C° 0 mm 1 mps 697 mmHg 77%
    03:00 +18°C° 0 mm 1 mps 697 mmHg 77%
    04:00 +17°C° 0 mm 2 mps 697 mmHg 80%
    05:00 +16°C° 0 mm 3 mps 698 mmHg 83%
    06:00 +15°C° 0 mm 4 mps 698 mmHg 85%
    07:00 +16°C° 0 mm 5 mps 698 mmHg 80%
    08:00 +17°C° 0 mm 5 mps 699 mmHg 75%
    09:00 +17°C° 0 mm 5 mps 699 mmHg 70%
    10:00 +17°C° 0 mm 5 mps 699 mmHg 69%
    11:00 +17°C° 0 mm 6 mps 699 mmHg 68%
    12:00 +17°C° 0 mm 6 mps 699 mmHg 68%
    13:00 +17°C° 0 mm 5 mps 699 mmHg 71%
    14:00 +16°C° 0 mm 5 mps 699 mmHg 74%
    15:00 +15°C° 0 mm 5 mps 699 mmHg 77%
    16:00 +14°C° 0 mm 4 mps 699 mmHg 81%
    17:00 +13°C° 0 mm 4 mps 699 mmHg 84%
    18:00 +13°C° 0 mm 4 mps 700 mmHg 87%
    19:00 +12°C° 0 mm 3 mps 700 mmHg 87%
    20:00 +12°C° 0 mm 3 mps 700 mmHg 87%
    21:00 +12°C° 0 mm 3 mps 700 mmHg 86%
    22:00 +12°C° 0 mm 3 mps 700 mmHg 86%
    23:00 +12°C° 0 mm 3 mps 700 mmHg 85%

    27 September, Thursday

    Time Temperature Precipitation Wind Pressure Humidity
    00:00 +14°C° 0 mm 2 mps 699 mmHg 85%
    01:00 +13°C° 0.1 mm 2 mps 699 mmHg 86%
    02:00 +13°C° 0.1 mm 2 mps 699 mmHg 87%
    03:00 +13°C° 0.1 mm 2 mps 699 mmHg 87%
    04:00 +13°C° 0.1 mm 2 mps 699 mmHg 88%
    05:00 +13°C° 0.1 mm 2 mps 699 mmHg 88%
    06:00 +14°C° 0.1 mm 2 mps 699 mmHg 88%
    07:00 +15°C° 0.2 mm 2 mps 700 mmHg 84%
    08:00 +16°C° 0.2 mm 2 mps 700 mmHg 80%
    09:00 +17°C° 0.2 mm 2 mps 700 mmHg 76%
    10:00 +18°C° 0.1 mm 2 mps 700 mmHg 75%
    11:00 +18°C° 0.1 mm 2 mps 700 mmHg 74%
    12:00 +19°C° 0.1 mm 3 mps 700 mmHg 73%
    13:00 +18°C° 0.1 mm 2 mps 700 mmHg 77%
    14:00 +18°C° 0.1 mm 2 mps 699 mmHg 82%
    15:00 +17°C° 0.1 mm 2 mps 699 mmHg 86%
    16:00 +17°C° 0.1 mm 2 mps 699 mmHg 89%
    17:00 +16°C° 0.1 mm 2 mps 699 mmHg 92%
    18:00 +16°C° 0.1 mm 2 mps 700 mmHg 95%
    19:00 +16°C° 0 mm 1 mps 700 mmHg 95%
    20:00 +16°C° 0 mm 1 mps 700 mmHg 94%
    21:00 +16°C° 0 mm 1 mps 700 mmHg 94%
    22:00 +15°C° 0 mm 1 mps 700 mmHg 92%
    23:00 +15°C° 0 mm 1 mps 699 mmHg 90%
    Show more